Location: London
(51.5074°N, 0.1278°W)
Time: 15:48:06
(UTC+01:00)

Tiangong - Pass Details

Date: 01 October 2021
Orbit: 382 x 384 km, 41.5° (Epoch: 20 October)

Event Time Altitude Azimuth Distance (km) Brightness Sun altitude
Exits shadow 04:49:04 10° 151° (SSE) 1,393 4.0 -21.0°
Drops below altitude 10° 04:49:07 10° 150° (SSE) 1,397 4.0 -21.0°
Sets 04:52:29 0° 111° (ESE) 2,250 5.7 -20.5°
